Flag for Canada Weather past 2 weeks in Winnipeg, Manitoba, Canada

Now
47 °F

Cool.


Feels Like: 43 °F
Forecast: 32 / 54 °F
Wind: 7 mph from North

Location: Winnipeg The Forks

Current Time: May 30, 2015 at 1:49:47 PM

Latest Report: May 30, 2015 at 1:00 PM


Visibility: N/A

Pressure: 30.46 "Hg

Humidity: 44%

Dew point: 26 °F

Location of WinnipegLocation

Historic Weather in Winnipeg — Graph

°F

Winnipeg temperature yesterday

Maximum temperature yesterday: 51 °F (at 12:00 AM)
Minimum temperature yesterday: 38 °F (at 11:00 PM)
Average temperature yesterday: 45 °F

Past Weeks' High & Low Weather Summary

 TemperatureHumidityPressure
High85 °F (May 26, 4:00 PM)99% (May 17, 11:00 PM)30.47 "Hg (May 17, 11:00 PM)
Low31 °F (May 18, 9:00 AM)14% (May 22, 5:00 PM)29.70 "Hg (May 25, 6:00 PM)
Average57 °F54%30.03 "Hg
* Reported May 15 12:00 Noon — May 30 12:00 Noon, Winnipeg, Weather by CustomWeather, © 2015

Note: Actual official high and low records may vary slightly from our data, if they occured in-between our weather recording intervals... More about our weather records

Advertising

Winnipeg weather history for previous 24 hours

 ConditionsComfort  
Time TempWeatherWind HumidityBarometerVisibility
12:00 PM
Sat, May 30
45 °FQuite cool.6 mph46%30.46 "HgN/A
11:00 AM44 °FQuite cool.6 mph53%30.46 "HgN/A
10:00 AM40 °FQuite cool.5 mph54%30.47 "HgN/A
9:00 AM40 °FQuite cool.5 mph52%30.47 "HgN/A
7:00 AM35 °FChilly.6 mph69%30.45 "HgN/A
6:00 AM34 °FChilly.7 mph67%30.44 "HgN/A
5:00 AM34 °FChilly.6 mph65%30.42 "HgN/A
4:00 AM34 °FChilly.7 mph72%30.42 "HgN/A
3:00 AM35 °FChilly.9 mph62%30.40 "HgN/A
2:00 AM35 °FChilly.7 mph61%30.40 "HgN/A
1:00 AM36 °FChilly.8 mph55%30.40 "HgN/A
12:00 AM37 °FChilly.8 mph57%30.40 "HgN/A
11:00 PM
Fri, May 29
38 °FChilly.6 mph57%30.39 "HgN/A
10:00 PM40 °FQuite cool.9 mph52%30.37 "HgN/A
9:00 PM42 °FQuite cool.12 mph46%30.35 "HgN/A
7:00 PM47 °FCool.9 mph46%30.31 "HgN/A
6:00 PM47 °FCool.12 mph48%30.29 "HgN/A
5:00 PM49 °FCool.12 mph47%30.27 "HgN/A
4:00 PM50 °FCool.12 mph52%30.26 "HgN/A
3:00 PM49 °FCool.12 mph52%30.26 "HgN/A
2:00 PM49 °FCool.10 mph54%30.25 "HgN/A
1:00 PM47 °FCool.12 mph62%30.24 "HgN/A
Weather by CustomWeather, © 2015

See weather overviewHow to use our weather pages